Weather History for MMLP - October, 2012

Change the Weather History Date:

Tuesday, October 2, 2012

  Actual Average Record
Temperature  
Mean Temperature 86 °F -  
Max Temperature 96 °F 90 °F 99 °F (2013)
Min Temperature 77 °F 67 °F 64 °F (2002)
Cooling Degree Days 22    
Growing Degree Days 36 (Base 50)    
Moisture  
Dew Point 74 °F    
Average Humidity 70    
Maximum Humidity 94    
Minimum Humidity 47    
Precipitation  
Precipitation 0.00 in - - ()
Sea Level Pressure  
Sea Level Pressure 29.85 in    
Wind  
Wind Speed 4 mph ()    
Max Wind Speed 14 mph    
Max Gust Speed -    
Visibility 10.3 miles    
Events      
Averages and records for this station are not official NWS values.
T = Trace of Precipitation, MM = Missing Value Source: Averaged Metar Reports

Daily Weather History Graph

Daily Weather History Graph

Search for Another Location

Airport or City:

Trip Planner

Search our weather history database for the weather conditions in past years. The results will help you decide how hot, cold, wet, or windy it might be!

Date:

Astronomy

Oct. 02, 2012 Rise Set
Actual Time 7:13 AM MDT 7:06 PM MDT
Civil Twilight 6:51 AM MDT 7:29 PM MDT
Nautical Twilight 6:24 AM MDT 7:55 PM MDT
Astronomical Twilight 5:58 AM MDT 8:22 PM MDT
Moon 8:45 PM MDT (10/2) 9:23 AM MDT (10/2)
Length of Visible Light 12h 38m
Length of Day
11h 53m
Waning Gibbous, 94% of the Moon is Illuminated
Oct 2
Waning Gibbous
Oct 8
Last Quarter
Oct 15
New
Oct 21
First Quarter
Oct 29
Full

Hourly Weather History & Observations

Time (MDT) Temp. Heat Index Dew Point Humidity Pressure Visibility Wind Dir Wind Speed Gust Speed Precip Events Conditions
2:40 AM 81 °F - 77 °F 83% 29.79 in 2 mi SE 4.5 mph - -  
5:50 AM 78 °F - 72 °F 77% 29.82 in 2 mi Calm Calm - -  
6:00 AM 75.2 °F - 71.6 °F 89% 29.88 in 10.0 mi Calm Calm - N/A   Clear
6:46 AM 73.4 °F - 71.6 °F 94% 29.84 in 10.0 mi South 4.6 mph - N/A   Clear
7:44 AM 73.4 °F - 71.6 °F 94% 29.84 in 10.0 mi South 4.6 mph - N/A   Clear
8:40 AM 75.2 °F - 73.4 °F 94% 29.91 in 10.0 mi South 4.6 mph - N/A   Clear
8:50 AM 85 °F - 74 °F 61% 29.86 in 12 mi Calm Calm - -  
9:49 AM 82.4 °F 89.5 °F 75.2 °F 79% 29.88 in 10.0 mi South 6.9 mph - N/A   Clear
10:52 AM 87.8 °F 93.8 °F 71.6 °F 58% 29.88 in 10.0 mi Calm Calm - N/A   Clear
11:42 AM 89.6 °F 94.7 °F 69.8 °F 52% 29.92 in 12.0 mi Calm Calm - N/A   Clear
11:50 AM 92 °F - 74 °F 47% 29.86 in 19 mi WSW 4.5 mph - -  
12:40 PM 89.6 °F 96.2 °F 71.6 °F 55% 29.85 in 12.0 mi NNW 9.2 mph - N/A   Clear
1:40 PM 89.6 °F 99.8 °F 75.2 °F 62% 29.83 in 12.0 mi NW 9.2 mph - N/A   Clear
2:42 PM 89.6 °F 98.2 °F 73.4 °F 59% 29.86 in 12.0 mi North 10.4 mph - N/A   Partly Cloudy
2:50 PM 92 °F - 77 °F 53% 29.81 in 19 mi NW 11.2 mph - -   Scattered Clouds
3:42 PM 89.6 °F 98.2 °F 73.4 °F 59% 29.80 in 12.0 mi NNW 9.2 mph - N/A   Partly Cloudy
4:43 PM 89.6 °F 99.8 °F 75.2 °F 62% 29.80 in 10.0 mi NNW 13.8 mph - N/A   Partly Cloudy
5:50 PM 92 °F - 78 °F 55% 29.80 in 19 mi NW 11.2 mph - -   Scattered Clouds
5:51 PM 87.8 °F 97.6 °F 75.2 °F 66% 29.91 in 10.0 mi NNW 9.2 mph - N/A   Partly Cloudy
6:46 PM 86.0 °F 95.1 °F 75.2 °F 70% 29.82 in 10.0 mi Calm Calm - N/A   Scattered Clouds
7:40 PM 86.0 °F 96.9 °F 77.0 °F 74% 29.83 in 10.0 mi Calm Calm - N/A   Scattered Clouds
8:44 PM 84.2 °F 92.3 °F 75.2 °F 74% 29.96 in 10.0 mi South 6.9 mph - N/A   Scattered Clouds
8:50 PM 87 °F - 77 °F 64% 29.85 in 2 mi WSW 4.5 mph - -   Partly Cloudy
9:53 PM 82.4 °F 89.5 °F 75.2 °F 79% 29.87 in 10.0 mi SSE 5.8 mph - N/A   Scattered Clouds
10:41 PM 80.6 °F 86.2 °F 75.2 °F 84% 29.88 in 10.0 mi SSE 6.9 mph - N/A   Scattered Clouds
11:50 PM 83 °F - 77 °F 77% 29.86 in 2 mi SW 6.7 mph - -